Location: Zagreb
(45.8000°N, 16.0000°E)
Time: 08:27:38
(UTC+02:00)

Courier 1B Rocket - Pass Details

Date: 09 August 2022
Orbit: 920 x 1202 km, 28.2° (Epoch: 01 October)

Event Time Altitude Azimuth Distance (km) Brightness Sun altitude
Rises 22:15:14 0° 246° (WSW) 3,736 8.3 -18.0°
Reaches altitude 10° 22:20:04 10° 216° (SW) 2,857 7.3 -18.5°
Maximum altitude 22:22:19 12° 197° (SSW) 2,766 7.1 -18.8°
Enters shadow 22:22:57 12° 191° (SSW) 2,785 7.0 -18.9°
Drops below altitude 10° 22:24:36 10° 178° (S) 2,925 - -19.0°
Sets 22:29:44 0° 148° (SSE) 3,954 - -19.6°
